Location: Friaudour
(46.0460°N, 1.2873°E)
Time: 20:58:56
(UTC+00:00)

Cosmos 1271 Rocket - Pass Details

Date: 14 July 2020
Orbit: 498 x 546 km, 81.2° (Epoch: 14 August)

Event Time Altitude Azimuth Distance (km) Brightness Sun altitude
Rises 02:41:05 0° 357° (N) 2,629 7.1 -13.2°
Reaches altitude 10° 02:43:24 10° 7° (N) 1,731 6.3 -13.0°
Maximum altitude 02:46:51 33° 73° (ENE) 864 4.4 -12.6°
Drops below altitude 10° 02:50:16 10° 139° (SE) 1,702 5.2 -12.2°
Sets 02:52:30 0° 149° (SSE) 2,577 6.1 -12.0°
